Regional Weather Roundup
Issued by NWS State College, PA

Home | Current Version | Previous Version | Text Only | Print | Product List | Glossary Off
Versions: 1 2 3 4 5 6 7 8 9 10 11 12 13 14 15 16 17 18 19 20 21 22 23 24 25 26 27 28 29 30 31 32 33 34 35 36 37 38 39 40 41 42 43 44 45 46 47 48 49 50

000
ASUS41 KCTP 271010
RWRCTP

REGIONAL WEATHER ROUNDUP
NATIONAL WEATHER SERVICE STATE COLLEGE PA
600 AM EDT WED MAY 27 2015

Note: "fair" indicates few or no clouds below 12,000 feet with no
significant weather and/or obstructions to visibility.

* = STATION THAT DOES NOT REPORT PRECIPITATION /E.G. RAIN...SNOW...ETC/
    THUNDER OR FOG.

PAZ002>004-007>009-013>016-020>023-029>032-271100-
WESTERN PENNSYLVANIA

CITY           SKY/WX    TMP DP  RH WIND       PRES   REMARKS
ERIE           CLOUDY    70  62  76 S17G25    30.00R
MEADVILLE      CLOUDY    66  62  87 SW7       30.06R
FRANKLIN*      CLOUDY    64  61  88 SW9       30.10R
NEW CASTLE     PTSUNNY   66  66 100 CALM      30.08R
BEAVER COUNTY  NOT AVBL
BUTLER*        CLOUDY    64  63  94 SW6       30.12R
PITTSBURGH INT CLOUDY    66  63  90 S6        30.10R
PITTSBURGH     MOCLDY    65  60  84 S9        30.10R
INDIANA*       MOCLDY    66  64  94 SW9       30.15R
LATROBE        MOCLDY    68  64  88 S6        30.13R
WASHINGTON CO* CLOUDY    63  61  94 CALM      30.13R
$$

PAZ004>006-010>012-017>019-024>028-033>037-041-042-045-046-049>053-271100-
CENTRAL PENNSYLVANIA

CITY           SKY/WX    TMP DP  RH WIND       PRES   REMARKS
BRADFORD       CLOUDY    64  61  90 VRB7      30.09S
DUBOIS         PTCLDY    66  61  84 SW8       30.10R
CLEARFIELD     PTCLDY    63  61  93 CALM      30.12R FOG
JOHNSTOWN      PTCLDY    64  60  87 SW7       30.15R
ALTOONA        PTCLDY    66  62  87 SW6       30.14R
STATE COLLEGE  PTCLDY    68  63  83 S5        30.11R
WILLIAMSPORT   MOCLDY    68  65  90 W5        30.08R
SELINSGROVE    PTCLDY    69  66  90 CALM      30.11R
FT INDIANTOWN  CLEAR     64  64  99 E1        30.13R
CAPITAL CITY   MOCLDY    73  65  75 S5        30.12R
HARRISBURG     MOCLDY    72  65  78 SE5       30.11R
YORK           PTCLDY    71  66  84 S6        30.12S
$$

PAZ038>040-043-044-047-048-054-055-060>062-067>071-271100-
EASTERN PENNSYLVANIA

CITY           SKY/WX    TMP DP  RH WIND       PRES   REMARKS
SCRANTON       PTCLDY    71  64  78 CALM      30.13R
MOUNT POCONO   CLOUDY    67  63  87 SW8       30.18R
ALLENTOWN      CLOUDY    71  64  78 CALM      30.14R
QUAKERTOWN*    CLOUDY    68  66  94 S5        30.16R
READING        CLOUDY    72  66  81 CALM      30.13R
LANCASTER      PTCLDY    70  66  87 S3        30.13S
COATESVILLE    CLOUDY    72  70  94 SW6       30.16S
POTTSTOWN      CLOUDY    70  68  93 S5        30.16S
BLUE BELL      CLOUDY    72  68  88 S5        30.15R
DOYLESTOWN     MOCLDY    68  66  93 VRB7      30.15R
WILLOW GROVE   NOT AVBL
NORTH PHILA    CLOUDY    72  64  76 VRB6      30.17S
PHILADELPHIA   CLOUDY    72  66  81 S8        30.17R
$$



USA.gov is the U.S. government's official web portal to all federal, state and local government web resources and services.